If you wish to contribute or participate in the discussions about articles you are invited to join SKYbrary as a registered user

Dalaman Airport

From SKYbrary Wiki
LTBS
Airport
ICAO: LTBS – IATA: DLM
Summary
Name Dalaman Airport
Region Europe
Territory Turkey TR.gif
Location Dalaman
Serving Dalaman
Elevation 6.096 m
20 ft
20 ft6.096 m
Coordinates 36° 42' 45", 28° 47' 29.0004"
Runways
Designator Length Width Surface ROPS
1/19 3000 m9,842.52 ft 45 m147.638 ft CON yes/yes
METAR
Observation LTBS 111720Z 17011KT 130V200 9999 SCT030 BKN100 13/03 Q1025 NOSIG
Station Dalaman
Date/Time 11 January 2017 17:20:00
Wind direction 170°
Wind speed 11 kts
Lowest cloud amount scattered clouds
Temperature 13°C
Dew point 3°C
Humidity 50%
QNH 1025 hPa
Weather condition n/a

RI
Tag(s) Runway Misidentification

Dalaman Airport

ICAO: LTBS IATA: DLM

Description

International airport serving south-west Turkey, located 3 nm5,556 m
5.556 km
18,228.346 ft
south of the town of Dalaman and with high ground to the north, east, and west.

Climatology

Typical Mediterranean climate with hot dry summers and mild, wet winters (Köppen climate classification Csa).

Maps

Terrain

Loading map...

Airport Layout

Loading map...


Accidents & Serious Incidents at or in vicinity of LTBS

None on SKYbrary